Overview Statistics Trail Chart Weather Telemetry Raw packets
 

This is the latest recevied weather packets stored in our database for station/object PACCTY-2. If no packets are shown the sender has not sent any weather packets the latest 10 day(s).

<< 62 63 64 65 66 67 68 >>
Time Temp. Humidity Pressure Rain* Wind** Luminosity Snow
1788026340 17.78° C 94% 1019.3 hPa 0 mm - - -
1788026037 17.22° C 94% 1019.3 hPa 0 mm - - -
1788025435 17.22° C 94% 1019.3 hPa 0 mm - - -
1788025135 17.78° C 94% 1019.2 hPa 0 mm - - -
1788024842 17.22° C 94% 1019.1 hPa 0 mm - - -
1788024532 17.22° C - 1019.1 hPa 0 mm - - -
1788023930 16.67° C 94% 1019.2 hPa 0 mm - - -
1788023629 16.67° C - 1019.2 hPa 0 mm - - -
1788023328 16.67° C 94% 1019.1 hPa 0 mm - - -
1788022726 16.11° C 94% 1019 hPa 0 mm - - -
1788022126 16.11° C 94% 1019 hPa 0 mm - - -
1788021824 16.11° C 94% 1018.9 hPa 0 mm - - -
1788021522 16.11° C 100% 1018.9 hPa 0 mm - - -
1788021221 16.11° C - 1018.9 hPa 0 mm - - -
1788020619 15.56° C 95% 1018.9 hPa 0 mm - - -
1788020018 15° C 94% 1018.8 hPa 0 mm - - -
1788019719 15° C 94% 1018.9 hPa 0 mm - - -
1788019415 15° C 94% 1018.9 hPa 0 mm - - -
1788018815 15° C 94% 1019 hPa 0 mm - - -
1788018512 15° C 94% 1018.7 hPa 0 mm - - -
1788017911 15° C - 1018.7 hPa 0 mm - - -
1788017007 15° C - 1018.5 hPa 0 mm - - -
1788016406 14.44° C 94% 1018.4 hPa 0 mm - - -
1788016104 14.44° C 94% 1018.4 hPa 0 mm - - -
1788015803 14.44° C 94% 1018.4 hPa 0 mm - - -

* Rain latest hour (hover to see other rain measurements)
** Current wind speed in m/s (hover to see current wind gust speed)